[[{"header":{"parameterUnit":"m.s-1","parameterCategory":1,"la1":30.2991,"la2":30.254,"lo1":-89.0895,"lo2":-89.0444,"dy":0.0017,"dx":0.0017,"nx":28,"ny":28,"refTime":"2023-11-01T03:00:00:Z","depth":0,"parameterNumber":2,"parameterNumberName":"U-component_of_WINDS"},"data":[0,0,0,0,0,0,0,0,0,0,0,0,0,0,0,0,0,0,0,0,0,0,0,0,0,0,0,0,0,0,0,0,0,0,0,0,0,0,0,0,0,0,0,0,0,0,0,0,0,0,0,0,0,0,0,0,0,0,0.0365,0.0364,0,0.029,0.0289,0.0288,0.0296,0.0298,0.0299,0.03,0.022,0.0217,0.0213,0,0,0,0,0,0,0,0,0,0,0,0,0,0.0512,0.051,0.0365,0.0364,0.0363,0.029,0.0289,0.0288,0.0296,0.0298,0.0299,0.0301,0.0221,0.0217,0.0213,0,0,0,0,0,0,0,0,0,0,0,0,0,0.0444,0.0509,0.0365,0.0359,0.0357,0.029,0.0289,0.0288,0.0296,0.0298,0.03,0.0301,0.0222,0.0217,0.0213,0.0147,0,0,0.0198,0.0196,0,0,0,0,0,0,0,0,0.0448,0.0439,0.036,0.0359,0.0357,0.0305,0.0312,0.024,0.0296,0.0319,0.03,0.0302,0.0246,0.024,0.0221,0.0143,0.0139,0.0197,0.0194,0.0192,0.0191,0,0,0,0,0,0,0,0.0453,0.0442,0.0335,0.0359,0.0357,0.0358,0.0351,0.0298,0.0273,0.0317,0.0318,0.0309,0.0246,0.0226,0.022,0.0138,0.0197,0.0193,0.019,0.0188,0.0002,-0.0,0,0,0,0,0,0,0.0459,0.0446,0.0338,0.0333,0.0408,0.0354,0.0346,0.032,0.0274,0.0269,0.0307,0.0309,0.0234,0.0225,0.0217,0.0136,0.0192,0.0188,0.0185,0.0004,0.0001,-0.0001,0,0,0,0,0,0,0.0463,0.045,0.0341,0.039,0.0376,0.035,0.0321,0.0317,0.0298,0.0267,0.0262,0.0292,0.0235,0.0224,0.0164,0.0133,0.0186,0.0181,0.0006,0.0003,0.0,-0.0026,0,0,0,0,0,0,0.0467,0.0451,0.0426,0.0389,0.0373,0.029,0.0319,0.0314,0.029,0.0292,0.0251,0.0246,0.0235,0.0172,0.0159,0.0128,0.0177,0.0009,0.0005,0.0001,-0.0022,-0.0029,-0.0035,0,0,0,0,0,0.0472,0.0421,0.0425,0.0411,0.0342,0.0288,0.0279,0.0269,0.0287,0.0261,0.0242,0.0247,0.0139,0.0165,0.0152,0.0118,0.0011,0.0006,0.0002,-0.002,-0.0028,-0.0035,0,0,0,0,0,0,0.0453,0.0416,0.0419,0.0355,0.0325,0.029,0.0257,0.026,0.0223,0.0226,0.0214,0.0205,0.0145,0.0126,0.0155,0.0052,0.0077,0.007,0.0066,0.0058,0.0051,0.0056,0.0173,0,0,0,0,0,0.0442,0.0402,0.0372,0.0318,0.0303,0.0282,0.0259,0.0254,0.0221,0.0208,0.0184,0.0152,0.0111,0.0083,0.0044,-0.0024,-0.0033,-0.0054,-0.006,-0.0066,-0.0073,-0.0111,-0.012,-0.0016,-0.0016,-0.0016,0,0,0.0417,0.0392,0.0367,0.0313,0.0289,0.0248,0.0271,0.0226,0.0195,0.0201,0.0143,0.0125,0.0088,0.0024,-0.0006,0.0006,-0.0103,-0.0071,-0.0075,-0.008,-0.0116,-0.0126,-0.0135,-0.0019,-0.0018,-0.0018,0,0,0.0351,0.0328,0.0281,0.0257,0.0221,0.0208,0.0197,0.0161,0.0149,0.0092,0.0096,0.0058,-0.0012,-0.0039,-0.0062,-0.0136,-0.0133,-0.0148,-0.0184,-0.022,-0.0229,-0.0236,-0.0264,-0.0274,-0.0155,-0.0155,-0.0155,0,0.0324,0.0262,0.0255,0.021,0.0186,0.0191,0.0142,0.0119,0.0072,0.0054,0.0069,-0.0019,-0.0044,-0.0114,-0.0132,-0.015,-0.0164,-0.0145,-0.0226,-0.0234,-0.0241,-0.0268,-0.0278,-0.0157,-0.0156,-0.0156,-0.0156,0,0.0231,0.0188,0.0154,0.0109,0.0082,0.0035,0.002,-0.0008,-0.001,-0.0024,-0.0083,-0.0111,-0.0157,-0.0173,-0.0176,-0.0244,-0.0236,-0.0223,-0.0199,-0.0253,-0.0278,-0.0288,-0.0159,-0.0159,-0.0158,-0.0158,0,0,0.0147,0.0101,0.0088,0.0068,0.003,-0.0004,-0.005,-0.0093,-0.0117,-0.0149,-0.0189,-0.0248,-0.0236,-0.0262,-0.0268,-0.03,-0.0358,-0.0284,-0.0285,-0.0298,-0.0436,-0.0446,-0.0458,-0.0355,-0.0357,-0.0358,-0.0433,0,0.0076,-0.0006,-0.0013,-0.0086,-0.0126,-0.012,-0.0161,-0.0189,-0.0203,-0.024,-0.0255,-0.0298,-0.0279,-0.0294,-0.0325,-0.0344,-0.0386,-0.0339,-0.0394,-0.0396,-0.0387,-0.0471,-0.0483,-0.0552,-0.0443,-0.0445,-0.0446,0,-0.0019,-0.0053,-0.0131,-0.0163,-0.018,-0.0216,-0.0256,-0.029,-0.0322,-0.033,-0.0357,-0.0358,-0.0407,-0.0378,-0.0445,-0.0413,-0.0435,-0.0448,-0.045,-0.0458,-0.0426,-0.0483,-0.0575,-0.0586,-0.0461,-0.046,-0.0459,0,-0.0075,-0.0139,-0.0194,-0.0211,-0.025,-0.0275,-0.0293,-0.0322,-0.0348,-0.0382,-0.0399,-0.0439,-0.0462,-0.0493,-0.0504,-0.0482,-0.0572,-0.0543,-0.0581,-0.0581,-0.0603,-0.0602,-0.0702,-0.0613,-0.0613,-0.0613,-0.0613,0,-0.0155,-0.0204,-0.0219,-0.0253,-0.0307,-0.0314,-0.0367,-0.0383,-0.0409,-0.0447,-0.0444,-0.0479,-0.0491,-0.0529,-0.0538,-0.0593,-0.0603,-0.0612,-0.0614,-0.0614,-0.0613,-0.0631,-0.0627,-0.0616,-0.0615,-0.0615,-0.0614,0,-0.0228,-0.024,-0.0299,-0.033,-0.0339,-0.0377,-0.0404,-0.0437,-0.0449,-0.0496,-0.0508,-0.0528,-0.0572,-0.0586,-0.0639,-0.0645,-0.071,-0.0707,-0.07,-0.0701,-0.0738,-0.0735,-0.0855,-0.0872,-0.077,-0.0771,-0.0772,0,-0.028,-0.0316,-0.035,-0.0374,-0.0392,-0.0432,-0.0457,-0.0465,-0.0491,-0.0529,-0.0558,-0.0601,-0.0636,-0.0707,-0.0727,-0.0767,-0.0767,-0.0806,-0.0773,-0.0771,-0.077,-0.0768,-0.0772,-0.0813,-0.0814,-0.0815,-0.0815,0,-0.0371,-0.0375,-0.0411,-0.0449,-0.0479,-0.0509,-0.0539,-0.0559,-0.0571,-0.0601,-0.0645,-0.0672,-0.0725,-0.0769,-0.081,-0.0828,-0.0825,-0.0825,-0.0836,-0.0837,-0.0832,-0.0837,-0.0719,-0.0823,-0.0822,-0.0822,-0.0821,-0.0821,-0.0436,-0.0468,-0.0497,-0.0537,-0.056,-0.0587,-0.062,-0.0635,-0.0672,-0.0715,-0.0717,-0.0766,-0.0796,-0.085,-0.0871,-0.0909,-0.0898,-0.0914,-0.0918,-0.0923,-0.0926,-0.0823,-0.0916,-0.0916,-0.0916,-0.0916,-0.0915,0,-0.0529,-0.0547,-0.0583,-0.0624,-0.0655,-0.0646,-0.0678,-0.0706,-0.0748,-0.0775,-0.0809,-0.086,-0.0902,-0.0924,-0.0965,-0.0992,-0.0991,-0.1002,-0.1002,-0.1006,-0.0933,-0.092,-0.1002,-0.1002,-0.1002,-0.1002,-0.1002,-0.1002,-0.0582,-0.0636,-0.0643,-0.0708,-0.0726,-0.0772,-0.0791,-0.0817,-0.0839,-0.0895,-0.0929,-0.0942,-0.0968,-0.1011,-0.1049,-0.1054,-0.1071,-0.1084,-0.1089,-0.102,-0.1012,-0.1003,-0.0991,-0.1087,-0.1087,-0.1159,-0.116,-0.116]},{"header":{"parameterUnit":"m.s-1","parameterCategory":1,"la1":30.2991,"la2":30.254,"lo1":-89.0895,"lo2":-89.0444,"dy":0.0017,"dx":0.0017,"nx":28,"ny":28,"refTime":"2023-11-01T03:00:00:Z","depth":0,"parameterNumber":3,"parameterNumberName":"V-component_of_WINDS"},"data":[0,0,0,0,0,0,0,0,0,0,0,0,0,0,0,0,0,0,0,0,0,0,0,0,0,0,0,0,0,0,0,0,0,0,0,0,0,0,0,0,0,0,0,0,0,0,0,0,0,0,0,0,0,0,0,0,0,0,-9.3982,-9.3984,0,-9.4172,-9.4174,-9.4176,-9.4064,-9.4059,-9.4054,-9.4049,-9.4235,-9.4245,-9.4255,0,0,0,0,0,0,0,0,0,0,0,0,0,-9.3516,-9.3525,-9.3982,-9.3984,-9.3987,-9.4172,-9.4174,-9.4177,-9.4065,-9.4059,-9.4052,-9.4046,-9.4232,-9.4244,-9.4256,0,0,0,0,0,0,0,0,0,0,0,0,0,-9.3713,-9.3528,-9.3982,-9.3954,-9.3953,-9.4171,-9.4174,-9.4177,-9.4067,-9.4059,-9.4051,-9.4043,-9.4228,-9.4243,-9.4258,-9.4512,0,0,-9.4303,-9.431,0,0,0,0,0,0,0,0,-9.3702,-9.3731,-9.3955,-9.3956,-9.3956,-9.4086,-9.4078,-9.4289,-9.4069,-9.4023,-9.4048,-9.4039,-9.4192,-9.4209,-9.4262,-9.452,-9.4528,-9.4305,-9.4314,-9.432,-9.4324,0,0,0,0,0,0,0,-9.3689,-9.3722,-9.4057,-9.3959,-9.3959,-9.3929,-9.3948,-9.4118,-9.415,-9.4027,-9.4019,-9.4043,-9.419,-9.4248,-9.4266,-9.4531,-9.4304,-9.4318,-9.4327,-9.4333,-9.5007,-9.5015,0,0,0,0,0,0,-9.3678,-9.3711,-9.4051,-9.4063,-9.3807,-9.3944,-9.3966,-9.4052,-9.4148,-9.4155,-9.405,-9.4038,-9.4227,-9.4249,-9.4272,-9.4577,-9.432,-9.4334,-9.4343,-9.4998,-9.5009,-9.5018,0,0,0,0,0,0,-9.3669,-9.371,-9.4043,-9.3885,-9.3925,-9.3961,-9.4059,-9.406,-9.4118,-9.4166,-9.417,-9.4104,-9.4221,-9.4251,-9.4454,-9.4581,-9.4341,-9.4355,-9.4987,-9.5001,-9.5014,-9.5187,0,0,0,0,0,0,-9.3656,-9.3707,-9.3805,-9.3888,-9.3934,-9.4224,-9.4067,-9.407,-9.4145,-9.4131,-9.4218,-9.4224,-9.4217,-9.4432,-9.4468,-9.4598,-9.4366,-9.4976,-9.4994,-9.5009,-9.517,-9.5205,-9.5235,0,0,0,0,0,-9.3639,-9.3845,-9.3811,-9.3853,-9.4059,-9.4232,-9.4258,-9.4248,-9.4156,-9.4255,-9.4285,-9.4221,-9.4561,-9.4453,-9.4494,-9.4629,-9.4968,-9.4989,-9.5008,-9.5156,-9.5198,-9.5234,0,0,0,0,0,0,-9.3773,-9.3855,-9.3818,-9.4057,-9.4139,-9.4213,-9.4337,-9.4293,-9.44,-9.4381,-9.4361,-9.4382,-9.4594,-9.4631,-9.451,-9.488,-9.475,-9.4779,-9.4848,-9.4889,-9.4921,-9.4907,-9.4379,0,0,0,0,0,-9.3831,-9.3968,-9.403,-9.4235,-9.4278,-9.4301,-9.4376,-9.4361,-9.4444,-9.4477,-9.4522,-9.4603,-9.4727,-9.481,-9.4927,-9.5175,-9.5192,-9.5288,-9.532,-9.5346,-9.5371,-9.5505,-9.5549,-9.5084,-9.5084,-9.5084,0,0,-9.3951,-9.4013,-9.4099,-9.4264,-9.4325,-9.4465,-9.433,-9.4483,-9.4586,-9.4499,-9.4694,-9.473,-9.4818,-9.5045,-9.5147,-9.5083,-9.5504,-9.5372,-9.5392,-9.5404,-9.553,-9.5574,-9.5614,-9.5098,-9.5095,-9.5093,0,0,-9.4242,-9.4302,-9.448,-9.4545,-9.464,-9.4654,-9.4697,-9.4778,-9.48,-9.4996,-9.4934,-9.5054,-9.5269,-9.5335,-9.5397,-9.5713,-9.5659,-9.5752,-9.592,-9.6051,-9.6087,-9.612,-9.6233,-9.6274,-9.5777,-9.5777,-9.5778,0,-9.4378,-9.4589,-9.4576,-9.4735,-9.4809,-9.4739,-9.4918,-9.498,-9.5108,-9.516,-9.5087,-9.5357,-9.5411,-9.5652,-9.573,-9.5782,-9.5829,-9.5742,-9.6083,-9.6116,-9.6146,-9.6253,-9.6296,-9.5788,-9.5787,-9.5786,-9.5785,0,-9.4752,-9.4899,-9.503,-9.516,-9.5248,-9.5416,-9.5426,-9.5517,-9.5494,-9.5515,-9.5715,-9.5778,-9.5908,-9.5963,-9.5942,-9.6202,-9.616,-9.6086,-9.5954,-9.6201,-9.6302,-9.6343,-9.5803,-9.58,-9.5796,-9.5794,0,0,-9.5132,-9.5253,-9.5302,-9.536,-9.5461,-9.5573,-9.5737,-9.5866,-9.5944,-9.6034,-9.6171,-9.6356,-9.6288,-9.6358,-9.6343,-9.6458,-9.6705,-9.637,-9.6371,-9.6431,-9.6996,-9.7052,-9.71,-9.6669,-9.6677,-9.6683,-9.6989,0,-9.543,-9.572,-9.5714,-9.5982,-9.6118,-9.6053,-9.6196,-9.6272,-9.6296,-9.6412,-9.6436,-9.6568,-9.6469,-9.6511,-9.6622,-9.6652,-9.6819,-9.663,-9.6795,-9.6801,-9.6777,-9.7153,-9.7213,-9.7498,-9.7028,-9.7035,-9.704,0,-9.5816,-9.5923,-9.6206,-9.6288,-9.6344,-9.6474,-9.6592,-9.6704,-9.6788,-9.6797,-9.6877,-9.6844,-9.7008,-9.6873,-9.7098,-9.697,-9.7037,-9.7062,-9.7072,-9.7088,-9.6936,-9.718,-9.7589,-9.7632,-9.7102,-9.7097,-9.7092,0,-9.6066,-9.6281,-9.6478,-9.653,-9.663,-9.6722,-9.6767,-9.6844,-9.6922,-9.7024,-9.7075,-9.7194,-9.7259,-9.7351,-9.735,-9.7251,-9.7579,-9.7443,-9.759,-9.7591,-9.7663,-9.7658,-9.809,-9.7705,-9.7704,-9.7703,-9.7702,0,-9.64,-9.6576,-9.6592,-9.6714,-9.6909,-9.6898,-9.7091,-9.7126,-9.7196,-9.7321,-9.7271,-9.7389,-9.7381,-9.75,-9.75,-9.7688,-9.7717,-9.7728,-9.7726,-9.7733,-9.7732,-9.7777,-9.7758,-9.7715,-9.7712,-9.771,-9.7708,0,-9.6713,-9.6731,-9.6943,-9.7021,-9.7044,-9.7185,-9.725,-9.7365,-9.7384,-9.7544,-9.7581,-9.7611,-9.7749,-9.7757,-9.7915,-9.7915,-9.8143,-9.8118,-9.8116,-9.8112,-9.8259,-9.8246,-9.8735,-9.8799,-9.8372,-9.8376,-9.838,0,-9.6926,-9.706,-9.7153,-9.7236,-9.7288,-9.742,-9.7501,-9.7495,-9.758,-9.7687,-9.7788,-9.7922,-9.8029,-9.8252,-9.8287,-9.8407,-9.8386,-9.8549,-9.8403,-9.8407,-9.8389,-9.8382,-9.8395,-9.8578,-9.8582,-9.8586,-9.8589,0,-9.7301,-9.7303,-9.7423,-9.7547,-9.7645,-9.7741,-9.783,-9.79,-9.7904,-9.8002,-9.8145,-9.8228,-9.8391,-9.8524,-9.8642,-9.8686,-9.8639,-9.8635,-9.8676,-9.8685,-9.8679,-9.8685,-9.8194,-9.8624,-9.862,-9.8618,-9.8616,-9.8615,-9.7571,-9.7688,-9.7772,-9.7907,-9.7974,-9.8059,-9.8172,-9.8206,-9.8325,-9.846,-9.8448,-9.8606,-9.8686,-9.884,-9.8893,-9.9015,-9.8959,-9.9018,-9.9033,-9.9048,-9.9064,-9.8659,-9.9036,-9.9035,-9.9034,-9.9033,-9.9032,0,-9.7944,-9.7996,-9.812,-9.8248,-9.8354,-9.8303,-9.8399,-9.8491,-9.8631,-9.8711,-9.8818,-9.8981,-9.9111,-9.9156,-9.9281,-9.9369,-9.9351,-9.9402,-9.9396,-9.9407,-9.9106,-9.9059,-9.9415,-9.9415,-9.9415,-9.9415,-9.9415,-9.9415,-9.8151,-9.8347,-9.836,-9.8587,-9.8636,-9.8793,-9.8853,-9.893,-9.8994,-9.918,-9.9288,-9.9318,-9.9383,-9.9513,-9.9628,-9.9638,-9.9687,-9.9748,-9.9749,-9.9467,-9.9428,-9.9391,-9.9347,-9.9758,-9.9759,-10.0039,-10.0042,-10.0044]}]]